Skip Page Navigation
NASA JPL Caltech
NASA Logo - Jet Propulsion Laboratory + View the NASA Portal
+ Center for Near-Earth Object Studies
JPL Home Earth Solar System Stars & Galaxies Technology
JPL Solar System Dynamics
BODIES ORBITS EPHEMERIDES TOOLS PHYSICAL DATA DISCOVERY FAQ SITE MAP
JPL Small-Body Database Browser
Search: [ help ]  
135114 (2001 QM113)
Classification: Main-belt Asteroid          SPK-ID: 2135114
Ephemeris | Orbit Diagram | Orbital Elements | Mission Design | Physical Parameters | Discovery Circumstances | Close-Approach Data ]

[ hide orbit diagram ]

For accurate long-term ephemerides, please instead use our Horizons system.This orbit viewer was implemented using two-body methods, and hence should not be used for determining accurate long-term trajectories (over several years or decades) or planetary encounter circumstances.


Orbital Elements at Epoch 2459200.5 (2020-Dec-17.0) TDB
Reference: JPL 24 (heliocentric ecliptic J2000)
 Element Value Uncertainty (1-sigma)   Units 
e .07732868740820971 5.3773e-08  
a 2.98194239692056 2.2375e-08 au
q 2.751352705439802 1.7077e-07 au
i 9.14828473507912 5.551e-06 deg
node 343.4806822335352 2.541e-05 deg
peri 357.163971651754 3.7437e-05 deg
M 295.0773734133294 2.9662e-05 deg
tp 2459539.688315156006
(2021-Nov-21.18831516)
0.00015669 TDB
period 1880.820291414891
5.15
2.1169e-05
5.796e-08
d
yr
n .1914058465039111 2.1544e-09 deg/d
Q 3.212532088401317 2.4106e-08 au
  Orbit Determination Parameters
   # obs. used (total)      1074  
   data-arc span      6895 days (18.88 yr)  
   first obs. used      2001-08-05  
   last obs. used      2020-06-21  
   planetary ephem.      DE441  
   SB-pert. ephem.      SB441-N16  
   condition code      0  
   norm. resid. RMS      .52  
   source      ORB  
   producer      Otto Matic  
   solution date      2021-Apr-13 18:11:34  

Additional Information
 Earth MOID = 1.74106 au 
 Jupiter MOID = 2.16049 au 
 T_jup = 3.235 
[ show covariance matrix ]

Ephemeris | Orbit Diagram | Orbital Elements | Mission Design | Physical Parameters | Discovery Circumstances | Close-Approach Data ]

Physical Parameter Table
Parameter Symbol Value Units Sigma Reference Notes
absolute magnitude H 14.05   n/a MPCxxxxx  
diameter diameter 6.089 km 0.356 urn:nasa:pds:neowise_diameters_albedos::2.0[mainbelt] (http://adsabs.harvard.edu/abs/2011ApJ...741...68M)  
geometric albedo albedo 0.144   0.023 urn:nasa:pds:neowise_diameters_albedos::2.0[mainbelt] (http://adsabs.harvard.edu/abs/2011ApJ...741...68M)  

135114 (2001 QM113)          Discovered 2001-Aug-25 by LINEAR at Socorro
Reference: 20060907/Numbers.arcLast Updated: 2006-09-10

[ show close-approach data ]
Ephemeris | Orbit Diagram | Orbital Elements | Mission Design | Physical Parameters | Discovery Circumstances | Close-Approach Data ]
ABOUT SSD CREDITS/AWARDS PRIVACY/COPYRIGHT GLOSSARY LINKS
FirstGov 2021-Jun-22 05:48 UT
(server date/time)  
NASA Home Page
Site Manager:   Ryan S. Park
Webmaster  Alan B. Chamberlin